Napa County, CA

4:26 AM PDT on July 28, 2017 (GMT -0700)
Napa County

Weather History for KAPC - June, 2013

Change the Weather History Date:

Friday, June 14, 2013

  Actual Average Record
Temperature  
Mean Temperature 69 °F 64 °F  
Max Temperature 87 °F 79 °F 110 °F (2000)
Min Temperature 50 °F 50 °F 40 °F (2003)
Degree Days  
Heating Degree Days 0    
Month to date heating degree days 13  
Since 1 June heating degree days 13  
Since 1 July heating degree days 2858  
Cooling Degree Days 4    
Month to date cooling degree days 21  
Year to date cooling degree days 41  
Since 1 June cooling degree days 21  
Growing Degree Days 18 (Base 50)    
Moisture  
Dew Point 48 °F    
Average Humidity 51    
Maximum Humidity 83    
Minimum Humidity 19    
Precipitation  
Precipitation 0.00 in - 0.18 in (1920)
Month to date precipitation 0.00  
Year to date precipitation 1.78  
Since 1 July precipitation 9.57  
Sea Level Pressure  
Sea Level Pressure 29.87 in    
Wind  
Wind Speed 9 mph (South)    
Max Wind Speed 20 mph    
Max Gust Speed 23 mph    
Visibility 10 miles    
Events      
T = Trace of Precipitation, MM = Missing Value Source: NWS Daily Summary

Daily Weather History Graph

Daily Weather History Graph

Search for Another Location

Airport or City:

Trip Planner

Search our weather history database for the weather conditions in past years. The results will help you decide how hot, cold, wet, or windy it might be!

Date:

Astronomy

Jun. 14, 2013 Rise Set
Actual Time 5:45 AM PDT 8:33 PM PDT
Civil Twilight 5:13 AM PDT 9:05 PM PDT
Nautical Twilight 4:34 AM PDT 9:44 PM PDT
Astronomical Twilight 3:49 AM PDT 10:30 PM PDT
Moon 11:21 AM PDT (6/14) No Moon Set
Length of Visible Light 15h 51m
Length of Day
14h 48m
Waxing Crescent, 31% of the Moon is Illuminated
Jun 14
Waxing Crescent
Jun 16
First Quarter
Jun 23
Full
Jun 29
Last Quarter
Jul 8
New

Hourly Weather History & Observations

Time (PDT) Temp. Dew Point Humidity Pressure Visibility Wind Dir Wind Speed Gust Speed Precip Events Conditions
12:54 AM 55.0 °F 46.9 °F 74% 29.96 in 10.0 mi SSE 3.5 mph - N/A   Clear
1:54 AM 54.0 °F 48.0 °F 80% 29.95 in 10.0 mi SSW 3.5 mph - N/A   Clear
2:54 AM 50.0 °F 45.0 °F 83% 29.94 in 10.0 mi Calm Calm - N/A   Clear
3:54 AM 53.1 °F 46.0 °F 77% 29.91 in 10.0 mi SSE 3.5 mph - N/A   Clear
4:54 AM 53.1 °F 46.0 °F 77% 29.91 in 10.0 mi SSE 5.8 mph - N/A   Clear
5:54 AM 53.1 °F 46.9 °F 80% 29.91 in 10.0 mi South 4.6 mph - N/A   Clear
6:54 AM 57.0 °F 48.0 °F 72% 29.92 in 10.0 mi South 5.8 mph - N/A   Clear
7:54 AM 63.0 °F 48.0 °F 58% 29.91 in 10.0 mi South 6.9 mph - N/A   Clear
8:54 AM 68.0 °F 48.0 °F 49% 29.91 in 10.0 mi South 11.5 mph - N/A   Clear
9:54 AM 72.0 °F 46.9 °F 41% 29.91 in 10.0 mi Variable 6.9 mph - N/A   Clear
10:54 AM 75.9 °F 50.0 °F 40% 29.89 in 10.0 mi SSW 9.2 mph - N/A   Clear
11:54 AM 81.0 °F 43.0 °F 26% 29.88 in 10.0 mi South 11.5 mph - N/A   Clear
12:54 PM 84.0 °F 39.0 °F 20% 29.87 in 10.0 mi South 10.4 mph - N/A   Clear
1:54 PM 86.0 °F 39.9 °F 20% 29.85 in 10.0 mi South 13.8 mph - N/A   Clear
2:54 PM 84.0 °F 46.0 °F 26% 29.83 in 10.0 mi SSW 17.3 mph - N/A   Clear
3:54 PM 82.9 °F 50.0 °F 32% 29.82 in 10.0 mi South 16.1 mph - N/A   Clear
4:54 PM 75.9 °F 52.0 °F 43% 29.82 in 10.0 mi SSW 11.5 mph - N/A   Clear
5:54 PM 78.1 °F 48.9 °F 36% 29.80 in 10.0 mi SSW 11.5 mph - N/A   Clear
6:54 PM 73.0 °F 52.0 °F 48% 29.80 in 10.0 mi South 11.5 mph - N/A   Clear
7:54 PM 68.0 °F 52.0 °F 56% 29.80 in 10.0 mi South 10.4 mph - N/A   Clear
8:54 PM 62.1 °F 52.0 °F 70% 29.81 in 10.0 mi South 5.8 mph - N/A   Clear
9:54 PM 57.9 °F 52.0 °F 81% 29.82 in 10.0 mi South 6.9 mph - N/A   Clear
10:54 PM 57.0 °F 51.1 °F 81% 29.83 in 10.0 mi South 8.1 mph - N/A   Clear
11:54 PM 57.0 °F 52.0 °F 83% 29.83 in 10.0 mi SSW 12.7 mph - N/A   Clear